{"data":{"norad_id":48671,"epoch":"2026-09-19T13:36:48.881088Z","epoch_age_seconds":117777,"freshness":"FRESH","line1":"1 48671U 21044AK  26262.56723242  .00005130  00000+0  17703-3 0  9995","line2":"2 48671  53.1606 293.2700 0001451  95.2318 264.8849 15.31685991293497","mean_motion":15.31685991,"eccentricity":0.0001451,"inclination_deg":53.1606,"raan_deg":293.27,"arg_perigee_deg":95.2318,"mean_anomaly_deg":264.8849,"bstar":0.00017703,"rev_number":29349,"period_min":94.014047817977,"perigee_km":469.78797753252,"apogee_km":471.77553375541,"semimajor_km":6848.918755644,"source":"CELESTRAK","updated_at":"2026-09-20T09:00:39.241435Z"}}